Wind_Speed
2 2 2 2 2 3 2 2 3 4 4 4 4 3 3 3 3 3 2 2 2 3 2 2 3 4 4 4 4 5 5 5 6 6 6 6 5 5 5 4 4 4 4
2 3 3 3 3 2 3 3 3 4 5 5 5 5 5 5 4 4 4 3 4 4 4 4 4 4 4 4 4 5 6 7 7 7 7 7 6 6 6 6 5 5 5
3 3 3 3 3 3 3 3 4 4 5 5 5 5 5 5 5 4 4 4 4 5 5 5 5 5 5 5 6 7 7 7 8 7 7 7 7 7 7 7 7 7 7
3 3 3 4 4 4 4 4 4 4 5 5 5 5 5 5 5 5 5 5 5 5 5 5 5 5 5 6 6 7 8 7 8 8 8 8 8 8 8 8 8 8 8
3 3 4 4 4 4 5 4 5 5 6 6 6 6 6 6 6 6 6 6 6 5 5 5 5 6 6 6 7 7 8 8 9 9 9 9 9 10 10 10 9 8 9
3 3 4 4 4 5 5 5 5 6 6 6 6 6 6 6 6 7 7 7 6 6 6 5 5 6 7 7 8 8 8 9 9 10 10 10 10 11 11 11 11 10 10
3 3 4 4 5 5 5 5 5 5 5 6 6 6 6 6 7 7 7 7 7 7 6 6 6 6 7 7 8 8 8 9 10 11 11 11 11 11 11 11 11 11 12
3 3 4 4 4 5 5 5 6 6 6 6 6 6 6 7 7 8 8 8 8 8 8 7 7 7 7 8 9 9 8 9 10 12 11 11 11 11 12 12 12 12 12
4 4 4 5 5 5 6 6 7 6 7 7 7 7 7 7 8 8 8 8 9 9 9 9 9 8 8 9 9 9 10 10 10 10 11 10 10 10 11 12 12 12 12
5 5 5 5 5 6 6 7 7 7 7 7 7 6 6 6 7 8 8 9 9 9 9 10 10 10 9 9 10 10 10 10 11 11 11 10 10 10 11 11 11 12 12
6 6 6 6 5 6 6 7 7 7 7 7 7 7 6 6 6 7 8 8 9 9 9 9 10 10 10 10 9 9 9 9 10 11 11 10 10 10 11 11 12 12 12
7 7 7 6 6 6 6 7 8 8 8 7 7 7 7 7 7 7 8 8 8 9 9 9 9 10 10 10 9 9 9 10 10 10 11 11 10 10 11 12 12 12 12
7 7 7 6 6 7 7 7 7 8 8 8 8 8 8 8 7 8 8 8 8 8 8 9 10 10 10 10 10 10 10 10 10 10 10 10 10 10 10 11 12 12 12
7 7 7 7 7 7 7 7 8 8 8 8 8 8 8 8 8 9 8 8 8 8 8 9 9 10 10 11 11 10 9 9 9 10 10 10 10 10 11 12 13 13 13
7 7 7 8 8 8 8 8 8 8 7 7 8 8 8 9 8 8 7 7 7 8 8 9 9 9 9 9 9 9 9 10 10 10 10 10 10 11 11 12 13 13 14
7 7 8 8 8 8 8 9 9 8 8 8 8 8 8 9 8 8 7 7 7 7 7 8 8 8 8 9 9 9 9 10 10 10 10 10 11 11 11 12 13 13 14
8 7 8 8 9 9 9 9 9 9 8 8 8 8 8 8 8 8 7 7 7 7 8 8 8 9 9 9 9 10 10 10 10 10 11 11 11 12 12 12 13 13 13
8 8 8 8 8 9 9 9 9 9 8 8 8 8 8 8 7 7 7 7 7 7 8 9 9 9 9 9 10 10 10 10 10 10 11 12 12 12 12 11 12 12 12
8 8 8 8 8 8 9 9 8 8 8 8 8 8 7 7 7 6 7 7 7 7 7 8 8 9 9 9 9 9 10 10 10 11 11 12 12 11 11 11 12 12 12
8 8 8 8 8 8 8 8 8 8 8 7 7 7 6 6 6 6 7 7 7 7 7 7 7 8 8 8 8 9 9 9 10 11 12 11 11 11 11 10 11 11 11
8 8 8 8 8 8 8 7 7 7 7 6 6 7 6 6 6 6 6 7 7 7 7 7 8 7 7 8 8 9 9 9 10 11 11 10 10 11 11 11 11 11 11
8 8 8 8 7 7 7 7 7 7 6 6 6 6 6 7 7 6 6 6 6 6 7 7 8 7 7 8 8 8 8 9 10 10 11 11 11 11 12 12 12 11 11
8 8 8 8 7 6 7 7 7 6 6 6 6 6 5 6 6 6 6 6 6 6 6 7 7 8 8 8 8 8 8 9 9 9 10 11 11 12 12 12 12 13 12
9 8 8 7 6 6 6 7 6 6 6 6 6 6 6 6 6 6 6 6 6 6 7 7 7 7 7 8 8 9 8 9 9 9 9 10 11 11 11 12 12 12 13
9 9 8 7 7 7 7 7 7 6 6 5 5 6 6 6 6 6 6 6 6 7 7 7 7 7 7 8 8 8 8 8 9 9 9 9 9 10 10 11 11 12 12
9 9 9 8 8 8 7 7 7 6 6 6 6 6 6 6 6 6 7 6 7 7 7 7 7 7 7 7 8 8 8 9 9 9 9 9 9 9 9 10 10 11 11
Wind_Direction
278 273 271 274 280 281 264 249 257 258 254 251 251 246 245 243 253 254 250 237 231 228 239 249 213 207 199 185 177 173 177 189 189 192 195 197 197 199 198 202 203 203 208
286 289 278 268 265 273 261 262 266 264 258 258 253 249 250 251 256 261 254 248 245 239 234 233 241 240 220 207 198 193 194 199 201 203 205 208 211 214 215 218 221 224 227
293 297 292 273 272 274 280 284 282 267 263 268 263 257 259 259 258 264 265 257 255 246 237 237 244 243 233 221 208 203 206 209 212 212 213 215 219 221 225 228 231 233 233
292 291 292 284 285 281 279 277 276 270 263 265 269 267 265 263 262 264 257 254 253 250 244 244 243 244 235 223 216 214 216 218 215 215 217 221 225 229 231 233 236 235 236
298 291 292 290 283 272 270 268 267 269 271 272 271 268 265 263 259 257 256 253 251 251 246 243 239 241 237 228 223 223 225 227 224 225 227 230 233 235 236 237 240 244 240
303 293 292 291 285 273 268 270 269 269 268 272 272 268 266 265 264 259 259 255 258 256 247 242 240 242 236 232 233 232 232 233 233 232 233 233 235 237 237 239 242 247 246
302 299 299 292 284 272 265 270 274 271 271 270 272 269 266 262 261 262 264 262 261 259 252 248 249 246 238 236 238 239 239 239 237 236 236 234 236 237 238 241 244 248 248
302 299 304 293 283 274 270 274 276 275 273 272 271 270 268 262 261 265 268 267 262 262 260 258 253 253 247 243 237 240 244 243 239 238 237 237 239 243 243 243 246 249 250
299 297 296 288 279 274 273 275 277 278 276 274 271 272 271 266 265 267 268 267 261 261 261 257 256 256 253 250 242 244 250 247 235 235 238 239 240 245 246 245 247 250 254
294 293 291 289 283 277 277 277 277 279 278 275 274 274 273 269 270 272 270 269 264 260 260 259 260 258 256 254 251 249 250 248 239 237 240 243 246 246 247 247 250 254 256
292 291 289 289 286 283 281 285 286 286 281 275 275 275 273 274 271 270 267 266 265 260 257 258 259 256 254 255 254 251 251 242 236 239 244 250 251 248 250 249 251 254 254
288 288 284 286 286 287 287 289 289 289 288 279 275 275 275 274 274 270 264 266 266 259 255 257 257 256 255 254 253 250 248 240 241 246 249 251 250 250 253 250 252 255 256
289 286 284 283 286 288 288 291 293 294 289 284 275 273 273 276 276 273 271 269 266 263 259 261 258 258 256 255 255 252 248 244 247 249 249 249 251 251 252 251 252 253 255
289 287 285 283 286 291 291 291 294 295 288 284 276 275 276 277 277 275 273 272 269 264 261 261 261 260 259 257 255 254 249 247 248 247 249 248 251 252 253 255 253 252 255
293 287 285 285 287 290 290 289 291 293 289 281 278 275 278 278 278 275 272 269 267 266 262 258 259 258 256 256 254 252 250 252 251 251 252 250 252 256 255 256 255 255 256
291 287 285 285 286 287 287 289 290 291 290 286 286 281 282 282 277 272 266 263 263 265 263 259 260 260 256 256 255 252 250 249 251 255 256 257 255 259 260 257 256 256 256
292 287 285 285 286 285 286 289 290 289 290 288 286 284 281 279 276 269 266 263 261 260 260 258 260 257 254 255 256 252 253 257 258 257 257 260 262 264 267 264 261 259 258
290 288 288 286 286 285 286 289 288 288 286 287 287 284 281 277 274 268 265 266 264 261 260 260 260 258 256 256 257 256 256 256 261 261 260 260 262 264 265 264 263 262 263
289 290 289 287 286 287 288 290 289 289 287 286 285 282 279 274 272 267 263 262 263 265 266 264 262 259 257 257 256 258 259 260 263 265 265 262 260 258 260 262 263 264 264
290 290 288 287 286 288 291 292 291 289 286 284 281 277 274 271 269 269 268 263 264 267 267 266 262 259 256 257 257 259 261 267 264 265 264 261 256 254 257 259 260 262 264
291 293 293 292 289 288 290 293 294 293 287 281 276 272 268 269 271 267 270 268 266 267 268 265 262 260 258 257 259 262 266 271 267 266 263 259 256 256 259 260 261 265 265
291 295 297 295 292 292 292 295 295 294 289 283 277 275 270 267 267 265 271 269 268 271 267 263 260 262 262 258 259 264 267 272 271 268 260 258 258 258 258 260 262 263 264
290 295 296 295 291 291 290 293 293 293 292 290 281 278 281 277 268 271 272 266 265 271 272 265 260 262 262 261 264 269 270 275 279 272 267 263 263 262 261 260 260 262 260
288 290 293 289 286 291 292 292 295 295 294 288 283 280 281 281 274 272 273 267 266 273 274 267 261 261 264 267 267 269 271 272 275 275 274 272 270 269 268 266 267 266 264
285 285 287 287 285 290 290 287 291 296 295 290 283 282 280 276 271 271 275 272 272 272 275 268 264 265 266 268 270 270 271 275 277 276 275 273 275 275 273 270 270 271 268
282 282 281 283 283 284 285 285 288 292 292 288 281 279 278 276 273 272 274 271 275 276 278 274 266 266 267 269 273 278 278 275 274 277 276 276 277 278 276 276 276 273 269
Height
5881 5880 5880 5879 5879 5879 5878 5878 5878 5878 5877 5877 5877 5876 5876 5876 5875 5876 5876 5875 5875 5875 5874 5874 5873 5873 5873 5874 5874 5874 5875 5876 5877 5877 5878 5879 5879 5880 5880 5881 5881 5881 5881
5880 5880 5879 5879 5879 5878 5878 5877 5877 5877 5876 5876 5876 5876 5875 5875 5875 5875 5875 5875 5875 5874 5874 5873 5873 5873 5874 5874 5874 5875 5875 5876 5877 5877 5878 5878 5879 5880 5880 5880 5880 5880 5881
5879 5879 5878 5878 5878 5877 5877 5877 5876 5876 5876 5875 5875 5875 5874 5874 5874 5874 5874 5874 5873 5873 5873 5873 5873 5873 5873 5873 5874 5875 5875 5875 5876 5877 5877 5878 5878 5879 5879 5879 5880 5880 5880
5878 5878 5877 5877 5877 5877 5876 5876 5876 5875 5875 5875 5874 5874 5874 5873 5873 5873 5873 5873 5873 5872 5872 5872 5872 5872 5872 5872 5873 5873 5874 5874 5875 5876 5876 5877 5877 5878 5878 5878 5878 5878 5879
5878 5877 5877 5876 5876 5876 5875 5875 5875 5875 5874 5874 5873 5873 5873 5872 5872 5872 5872 5871 5871 5871 5871 5871 5871 5871 5871 5871 5872 5872 5873 5873 5874 5874 5875 5875 5876 5876 5877 5877 5877 5877 5877
5877 5876 5876 5876 5875 5875 5874 5874 5874 5874 5873 5873 5872 5872 5872 5871 5871 5870 5870 5870 5870 5870 5870 5870 5870 5870 5870 5870 5871 5871 5871 5872 5872 5873 5873 5874 5874 5874 5875 5875 5876 5876 5876
5876 5875 5875 5875 5874 5874 5873 5873 5873 5872 5872 5872 5871 5871 5870 5870 5870 5869 5869 5869 5869 5868 5868 5868 5868 5868 5868 5869 5869 5869 5869 5870 5870 5870 5871 5872 5872 5872 5873 5873 5874 5874 5874
5875 5875 5874 5874 5873 5873 5872 5872 5872 5871 5871 5870 5870 5869 5869 5869 5868 5868 5868 5867 5867 5867 5867 5867 5867 5867 5867 5867 5867 5867 5867 5867 5868 5868 5869 5869 5870 5870 5871 5871 5871 5872 5872
5874 5874 5873 5872 5872 5871 5871 5871 5870 5870 5869 5869 5869 5868 5867 5867 5867 5866 5866 5866 5865 5865 5865 5865 5865 5865 5865 5865 5865 5865 5864 5863 5864 5866 5866 5867 5868 5868 5868 5869 5869 5870 5870
5873 5873 5872 5871 5871 5870 5870 5869 5869 5868 5868 5868 5867 5867 5866 5866 5865 5865 5864 5864 5864 5863 5863 5863 5863 5863 5863 5863 5862 5862 5860 5859 5860 5863 5864 5865 5865 5866 5866 5866 5867 5867 5868
5872 5871 5871 5870 5869 5869 5868 5868 5867 5867 5866 5866 5865 5865 5864 5864 5863 5862 5862 5862 5861 5861 5861 5861 5861 5861 5861 5861 5860 5859 5858 5857 5858 5861 5862 5863 5863 5863 5864 5864 5865 5865 5865
5871 5870 5869 5869 5868 5868 5867 5866 5866 5865 5864 5864 5864 5863 5862 5862 5861 5860 5860 5860 5859 5859 5859 5859 5859 5859 5859 5859 5859 5858 5857 5857 5858 5859 5860 5860 5861 5861 5861 5862 5862 5862 5863
5869 5869 5868 5867 5867 5866 5866 5865 5864 5863 5863 5862 5861 5861 5860 5860 5859 5859 5858 5857 5857 5857 5857 5857 5857 5857 5857 5857 5857 5857 5856 5857 5857 5858 5858 5859 5859 5859 5859 5859 5859 5860 5860
5868 5867 5867 5866 5866 5865 5864 5864 5863 5862 5861 5860 5860 5859 5858 5858 5857 5857 5856 5856 5855 5855 5855 5855 5855 5855 5855 5855 5855 5855 5855 5855 5855 5856 5856 5856 5857 5857 5857 5857 5857 5857 5857
5867 5866 5865 5865 5864 5863 5863 5862 5861 5860 5859 5858 5858 5857 5856 5856 5855 5855 5854 5854 5853 5853 5853 5853 5853 5853 5853 5853 5853 5853 5853 5853 5853 5854 5854 5854 5854 5854 5854 5854 5854 5854 5854
5865 5864 5864 5863 5862 5862 5861 5860 5859 5858 5857 5857 5856 5855 5854 5854 5853 5853 5852 5852 5851 5851 5851 5851 5851 5851 5851 5851 5851 5851 5851 5851 5851 5851 5851 5852 5852 5852 5852 5852 5852 5852 5852
5863 5863 5862 5861 5861 5860 5859 5858 5857 5856 5856 5855 5854 5853 5852 5852 5851 5851 5850 5850 5849 5849 5849 5849 5849 5849 5849 5849 5849 5849 5849 5849 5849 5849 5849 5849 5849 5849 5849 5849 5849 5849 5849
5862 5861 5860 5859 5859 5858 5857 5856 5855 5854 5854 5853 5852 5851 5850 5850 5849 5849 5848 5848 5848 5848 5847 5847 5847 5847 5847 5847 5847 5847 5847 5847 5847 5847 5847 5847 5847 5847 5846 5846 5846 5846 5846
5860 5859 5859 5858 5857 5856 5855 5854 5853 5852 5852 5851 5850 5849 5848 5848 5848 5847 5847 5846 5846 5846 5846 5845 5845 5845 5845 5845 5845 5845 5845 5845 5845 5844 5844 5844 5844 5844 5844 5844 5844 5844 5844
5859 5858 5857 5856 5855 5854 5853 5852 5851 5851 5850 5849 5848 5847 5847 5846 5846 5845 5845 5845 5844 5844 5844 5844 5843 5843 5843 5843 5843 5843 5843 5842 5842 5842 5842 5841 5841 5841 5841 5841 5841 5841 5841
5857 5856 5855 5854 5853 5852 5851 5850 5849 5849 5848 5847 5846 5846 5845 5845 5844 5844 5843 5843 5843 5843 5842 5842 5842 5842 5841 5841 5841 5841 5841 5840 5840 5840 5839 5839 5838 5838 5838 5838 5838 5838 5838
5855 5854 5853 5852 5851 5850 5849 5849 5848 5847 5846 5845 5845 5844 5844 5843 5843 5842 5842 5841 5841 5841 5841 5840 5840 5840 5839 5839 5839 5839 5839 5839 5837 5837 5837 5836 5836 5836 5836 5835 5835 5835 5835
5853 5852 5851 5850 5849 5848 5848 5847 5846 5845 5844 5844 5843 5843 5842 5841 5841 5841 5840 5840 5839 5839 5839 5838 5838 5838 5838 5838 5837 5837 5836 5836 5835 5835 5834 5834 5834 5833 5833 5833 5832 5832 5832
5851 5850 5850 5848 5848 5847 5846 5845 5845 5844 5843 5842 5841 5841 5840 5840 5839 5839 5839 5838 5838 5837 5837 5837 5836 5836 5836 5835 5835 5835 5834 5834 5833 5833 5832 5831 5831 5831 5830 5830 5829 5829 5829
5849 5848 5848 5847 5846 5845 5845 5844 5843 5842 5841 5841 5840 5839 5839 5838 5838 5837 5837 5837 5836 5836 5835 5835 5834 5834 5834 5833 5833 5832 5832 5832 5831 5831 5830 5829 5829 5828 5828 5827 5827 5826 5826
5847 5846 5846 5845 5844 5844 5843 5842 5842 5841 5840 5839 5838 5838 5837 5837 5836 5836 5835 5835 5834 5834 5833 5833 5832 5832 5832 5831 5831 5830 5830 5829 5829 5828 5828 5827 5826 5826 5825 5825 5824 5824 5823